Theta_e
335 331 321 314 302 301 296 300 308 307 311 319 320 315 312 314 311 306 323 327 336 339 344 344 348 346 345 343 342 341 339 338 337 336 334 333 333 332 331 330 330 329 329 328 327 326 327 327 326
331 326 315 306 296 292 295 303 303 308 315 319 318 315 311 311 316 317 321 326 338 339 341 340 345 343 342 340 339 338 337 335 334 333 332 331 331 330 328 327 326 326 326 325 325 325 324 324 323
325 320 307 299 297 293 296 303 306 310 315 316 315 314 314 313 316 320 323 330 333 335 337 340 342 341 340 338 337 335 334 333 332 332 330 329 328 327 326 325 325 324 324 323 324 321 322 321 321
314 308 303 295 294 299 301 305 308 310 314 318 315 310 313 317 318 323 325 328 329 330 335 339 340 338 337 335 334 334 333 332 331 329 328 326 326 325 324 324 323 323 322 322 320 319 319 319 318
308 304 298 291 294 299 305 308 309 307 311 315 314 312 309 315 321 323 325 327 327 328 333 334 337 336 335 334 333 333 332 331 329 328 326 325 325 324 323 322 322 321 320 319 318 317 317 316 315
302 300 291 292 295 298 306 309 308 306 308 313 313 313 311 314 319 323 325 326 327 327 330 332 334 336 334 333 332 331 330 329 327 326 325 324 324 323 321 321 320 319 318 317 315 314 314 314 312
299 295 292 293 293 295 305 309 306 306 307 309 315 310 310 312 321 323 323 324 326 327 327 329 331 332 333 333 332 330 328 327 326 324 323 322 321 321 320 319 317 317 315 314 313 312 311 310 310
300 297 292 292 293 293 303 307 309 308 305 310 313 306 307 311 320 321 321 322 323 324 325 326 327 328 328 329 330 329 327 324 324 321 319 318 318 317 316 314 314 314 313 311 310 308 306 307 306
301 293 290 292 292 295 301 304 308 311 309 307 309 307 308 316 319 318 317 318 319 320 321 323 323 323 324 325 325 326 325 323 320 317 314 308 306 308 308 310 310 310 310 309 307 305 303 300 300
297 292 292 296 298 296 300 305 306 303 304 303 305 306 313 316 316 315 315 315 317 318 318 321 320 320 320 319 319 317 315 310 309 306 301 301 303 305 304 305 305 305 305 304 303 301 299 295 293
297 293 296 296 299 299 299 300 306 304 301 305 304 305 311 313 314 315 316 316 317 318 318 318 318 317 316 313 310 307 305 303 300 298 299 300 299 297 295 294 294 294 295 293 293 293 292 292 292
293 296 298 299 298 298 296 300 300 303 304 308 309 308 311 311 313 314 315 315 316 316 317 316 316 314 312 309 306 303 301 299 297 297 296 295 294 293 293 293 293 292 293 292 292 292 291 291 291
294 297 297 300 298 298 298 297 298 299 305 304 306 308 309 311 313 316 316 316 316 314 315 315 314 312 308 305 302 301 299 297 296 295 295 294 294 293 292 292 292 292 292 291 291 291 290 290 290
295 297 297 296 297 297 295 295 297 298 302 303 304 306 309 310 312 314 314 314 314 314 314 314 312 310 307 303 301 299 297 295 295 295 294 294 293 293 292 292 291 291 291 291 291 290 290 290 290
294 291 294 295 295 295 296 292 293 299 298 299 302 304 306 309 312 312 313 313 314 314 314 312 311 307 305 301 299 297 296 295 294 294 293 293 293 293 292 291 291 290 291 290 290 289 289 289 289
290 289 287 293 293 294 296 289 296 300 297 297 300 302 304 306 310 312 314 314 314 314 312 312 311 306 304 300 298 296 295 295 294 293 293 293 292 292 291 290 290 290 290 290 289 289 288 288 288
286 284 285 289 293 292 293 290 295 296 297 297 297 301 302 304 307 311 313 313 313 313 312 311 310 305 303 299 297 296 295 294 293 293 292 292 292 291 291 290 289 289 289 288 288 288 288 287 287
282 282 284 286 288 290 288 290 293 293 294 296 297 298 301 302 304 307 310 313 312 312 311 311 309 305 302 299 297 296 294 293 293 292 292 292 291 291 290 289 289 289 288 287 287 287 287 287 286
287 284 284 286 289 289 289 289 292 293 291 292 294 293 295 300 304 306 308 310 310 310 309 309 307 304 301 298 295 294 293 292 291 292 292 291 291 290 290 289 288 288 288 287 287 287 286 286 286
287 283 284 285 288 289 287 287 291 292 293 293 293 293 292 296 300 303 304 307 307 308 307 307 307 303 302 300 299 298 295 293 293 292 291 291 290 290 289 289 288 287 286 286 286 286 286 285 285
285 283 281 282 286 287 286 285 287 290 293 292 294 296 294 294 297 302 302 303 304 306 306 306 306 303 303 301 299 296 292 291 290 290 290 290 290 290 289 288 288 287 287 285 285 285 284 284 284
282 288 285 284 283 279 286 279 285 289 290 289 293 294 295 294 296 301 302 302 303 304 306 306 305 303 303 300 297 293 294 291 293 291 291 290 290 289 289 288 287 287 286 285 285 285 284 284 283
284 289 286 284 282 281 281 278 284 287 286 289 291 293 294 296 296 298 302 303 303 304 304 305 305 303 302 300 298 295 296 295 293 291 289 289 289 289 288 288 287 286 286 285 286 284 283 284 284
287 285 284 282 281 276 282 280 282 284 286 287 290 294 295 295 297 297 302 304 303 304 303 303 303 302 302 300 299 297 297 293 290 289 289 288 288 288 287 287 286 286 285 284 284 284 283 283 283
287 283 277 275 275 275 282 279 282 286 290 292 291 293 293 295 296 296 298 301 302 302 302 302 302 300 301 299 298 297 297 293 291 290 289 287 287 286 285 285 285 284 284 284 284 283 283 283 282
284 283 277 272 272 276 280 276 282 289 292 293 291 293 295 295 294 296 297 301 302 302 301 302 301 300 300 298 298 297 296 293 293 291 290 289 288 286 286 285 284 284 283 284 283 283 283 282 282
284 281 285 278 277 275 278 281 286 287 288 289 290 293 293 291 292 294 296 300 302 302 301 301 301 300 299 298 298 297 294 294 292 292 290 289 288 286 284 284 283 283 283 283 282 282 282 282 282
287 289 280 281 273 272 276 277 281 284 288 290 290 289 290 291 291 292 295 299 301 302 301 302 301 300 299 298 297 296 293 293 292 290 289 287 286 285 283 282 282 282 282 282 282 281 281 281 281
283 283 284 283 280 276 274 278 285 287 289 290 290 292 292 292 292 292 293 299 301 301 300 300 300 299 297 297 296 295 294 292 290 289 287 286 285 283 283 282 281 281 281 281 281 281 281 280 280
287 283 284 279 276 278 276 277 287 288 289 290 290 291 292 293 293 293 294 297 298 298 299 299 299 298 296 297 295 292 290 289 289 287 286 284 283 283 282 281 281 281 281 280 280 280 281 280 279
Wind_Speed
5 10 3 0 2 1 4 6 1 4 2 2 8 4 6 5 10 5 3 5 14 16 18 20 20 20 19 18 18 18 18 17 17 17 17 16 16 15 15 15 14 14 15 15 14 14 15 16 17
4 6 3 3 2 4 5 7 8 10 1 7 8 4 3 14 1 3 9 6 16 15 16 16 20 20 20 20 19 19 19 18 17 17 16 16 16 15 15 15 13 15 16 15 14 16 15 16 16
5 7 4 3 4 10 4 6 12 4 6 4 4 2 4 5 3 11 4 13 14 14 14 16 21 22 21 21 21 20 19 19 18 17 16 15 16 15 15 15 14 15 15 14 16 15 15 15 16
5 3 3 6 14 10 9 5 7 5 0 5 5 3 3 0 3 8 14 14 14 13 14 18 21 21 21 21 21 21 20 19 19 17 17 15 16 15 15 15 16 16 15 15 15 15 14 16 15
4 3 5 6 16 9 8 6 12 8 6 9 9 4 5 0 2 10 15 14 16 13 14 15 21 22 22 22 21 21 20 19 19 18 17 16 16 16 14 15 17 16 14 14 15 15 14 16 16
4 2 5 19 20 12 6 9 4 3 3 5 5 2 5 1 10 13 14 14 15 14 13 14 19 21 22 21 20 20 20 20 19 18 18 17 17 16 14 16 17 16 15 14 15 15 15 16 16
6 5 16 14 20 18 7 8 11 10 9 7 8 4 4 4 10 15 12 13 14 13 13 11 14 16 19 19 19 19 19 19 19 18 17 18 17 16 16 17 17 17 16 14 15 14 16 16 16
5 4 13 10 13 11 10 8 6 15 10 3 5 11 14 9 17 14 11 11 12 11 11 11 12 13 12 13 18 17 18 18 20 19 17 17 16 17 16 16 17 16 16 15 14 15 16 16 16
4 4 15 19 13 12 5 7 5 3 10 4 12 6 6 19 18 15 13 10 11 9 10 11 11 11 11 11 13 16 18 17 20 18 17 13 8 11 13 15 17 17 16 15 14 14 16 14 14
6 12 21 7 16 12 9 10 10 4 12 7 4 3 10 19 20 21 21 17 17 17 13 12 12 13 12 9 9 9 10 9 10 11 11 9 10 10 12 14 16 16 15 14 14 14 14 11 6
7 17 20 11 16 12 8 5 11 22 14 10 15 13 20 20 20 21 21 20 20 16 12 13 13 13 12 9 7 5 6 6 7 11 9 9 7 7 6 5 5 6 10 5 7 7 7 9 6
7 14 18 13 7 7 11 5 8 17 20 11 14 18 22 23 21 22 23 24 21 19 16 14 15 13 12 8 7 8 7 7 7 8 11 8 6 7 8 5 6 6 4 5 5 4 7 7 7
17 21 14 21 6 11 3 12 14 11 11 4 11 19 22 21 23 19 15 17 17 19 17 17 15 14 12 11 9 9 9 7 8 8 8 7 7 7 8 7 5 5 5 4 5 5 5 5 5
15 25 21 7 14 9 8 11 6 8 8 7 11 17 19 24 25 19 17 21 20 21 21 18 17 14 14 12 12 8 8 9 9 8 8 9 7 7 8 7 6 5 4 4 4 5 5 4 3
8 12 17 20 11 10 8 17 20 13 6 11 13 13 16 20 19 26 26 26 27 23 21 20 18 16 16 14 12 10 8 8 8 8 10 11 8 9 9 7 6 5 4 5 4 5 4 3 3
13 3 17 14 10 8 15 28 15 19 14 16 15 12 14 19 26 22 20 20 20 19 22 20 16 16 15 14 11 9 9 9 8 8 8 11 9 10 9 7 6 6 4 4 4 4 3 3 4
7 18 26 19 16 7 20 14 14 10 17 21 14 14 15 14 17 18 20 20 21 21 22 22 20 19 18 14 10 11 12 9 9 8 8 11 10 10 9 7 7 6 4 4 4 4 3 3 5
13 11 8 22 8 13 10 19 3 7 11 17 15 16 17 17 21 20 18 18 19 19 19 20 17 20 18 12 10 8 9 8 9 9 9 12 9 10 9 8 8 6 5 4 4 4 4 3 5
15 9 25 7 8 13 22 19 22 10 6 12 11 9 13 16 12 12 15 17 18 18 20 22 21 20 16 13 13 11 11 9 9 9 12 12 10 11 10 7 8 6 5 5 4 3 4 3 6
21 15 19 4 4 11 3 19 15 11 14 16 17 16 14 11 10 13 17 19 21 22 22 22 23 22 18 14 13 9 11 8 9 8 11 11 12 11 10 10 8 7 6 6 5 3 2 2 5
26 29 5 4 3 3 4 8 15 10 15 8 14 16 13 17 15 15 19 23 21 22 24 24 23 23 21 18 12 8 8 6 7 9 9 10 12 11 11 10 8 8 6 5 5 4 3 2 2
30 14 6 6 5 5 5 10 10 13 17 14 19 17 17 16 14 17 20 21 23 23 22 23 24 24 22 23 18 22 18 13 9 11 9 9 11 11 10 10 9 8 6 6 5 4 3 2 1
15 25 16 4 6 3 4 5 12 13 15 18 16 16 17 19 20 20 23 24 25 23 22 23 23 23 22 23 21 17 17 12 9 10 14 12 10 11 11 10 10 9 6 6 6 6 5 2 2
10 10 6 4 4 11 28 17 18 15 14 4 10 17 18 17 18 19 20 19 18 19 20 21 24 23 22 22 22 23 22 17 14 14 12 10 8 8 10 10 9 8 8 7 6 6 5 4 3
18 10 6 4 4 20 12 14 24 10 16 21 14 14 15 14 14 15 17 18 19 22 23 21 24 24 24 24 23 23 21 20 20 19 14 15 10 8 10 11 10 8 8 7 7 6 5 5 4
24 20 8 10 11 11 7 12 9 17 28 20 11 14 13 14 11 16 19 19 21 23 24 24 26 25 25 24 24 21 20 13 13 17 14 12 11 10 12 10 9 10 9 8 7 5 4 5 4
12 19 10 6 4 4 5 6 8 8 10 12 15 18 21 8 8 12 14 18 19 21 24 25 25 23 24 24 21 21 18 19 16 17 15 11 11 9 12 11 10 9 9 8 7 5 5 5 4
18 22 10 3 8 7 5 4 6 5 17 17 11 10 8 4 7 8 11 16 17 20 20 21 22 23 23 22 20 18 18 17 16 16 17 15 12 13 12 11 11 10 8 8 7 5 5 5 4
5 14 7 8 5 9 8 7 8 7 4 6 3 4 6 7 7 7 6 8 12 14 17 18 19 21 20 20 19 18 17 17 17 16 15 15 14 14 13 12 11 10 9 8 7 5 5 5 4
12 11 17 11 7 5 3 6 3 5 4 7 4 5 5 2 2 2 5 8 10 13 15 18 18 18 19 18 18 18 16 17 16 15 15 15 15 13 13 12 10 9 8 8 7 6 5 5 5
Wind_Direction
221 115 174 195 145 162 229 234 189 270 236 87 141 160 163 288 172 209 24 191 151 148 150 144 137 131 123 117 116 119 119 122 122 116 112 108 102 98 94 89 87 85 78 73 69 67 67 63 59
133 109 48 55 218 202 229 209 210 230 117 133 110 75 239 247 186 138 139 199 153 146 144 138 129 135 133 132 133 133 129 127 123 117 114 110 105 99 94 90 88 82 80 74 70 70 64 64 60
130 98 95 214 214 221 236 191 218 188 187 169 91 127 219 223 171 164 175 166 150 138 142 130 138 141 142 141 139 137 134 130 126 118 114 111 104 100 97 94 92 83 78 79 74 68 67 65 63
133 70 89 238 234 236 232 221 128 150 153 133 106 235 247 35 196 180 151 157 139 144 130 139 149 150 145 144 143 139 137 133 127 122 117 112 108 104 98 102 92 82 80 77 77 72 68 67 63
73 131 205 226 248 246 227 249 134 172 147 196 152 256 261 346 115 143 151 150 145 141 138 145 153 150 149 147 145 142 141 135 130 126 122 119 113 108 108 100 90 87 81 78 75 74 69 69 62
140 134 204 230 238 242 210 208 155 111 167 149 145 225 258 138 152 156 156 152 147 139 140 153 156 152 151 147 147 145 142 138 132 129 126 121 118 114 109 101 96 93 85 79 76 71 69 66 63
163 175 219 224 228 236 205 185 144 239 248 196 141 239 289 186 171 155 156 147 143 143 147 150 153 150 150 149 149 147 145 140 135 129 124 118 117 117 110 102 97 93 90 80 74 71 65 61 60
155 169 233 223 223 233 193 181 187 153 224 49 131 229 223 196 162 148 145 147 144 145 150 150 149 151 148 149 148 147 142 138 133 127 122 118 116 106 100 99 94 88 84 80 74 71 65 59 57
138 199 235 226 212 220 177 155 129 140 228 221 188 273 312 141 141 145 144 152 154 152 161 156 148 143 138 141 149 143 137 137 128 124 114 104 101 105 105 98 91 88 82 77 73 66 67 62 54
177 214 226 214 225 214 199 181 169 121 206 203 191 64 141 149 157 164 170 172 172 175 168 162 150 144 139 139 133 120 124 115 117 121 131 120 113 112 105 93 87 83 79 73 69 66 62 57 47
198 228 224 220 218 222 210 216 182 203 230 194 197 172 166 167 173 178 180 178 179 172 170 165 151 147 142 139 130 119 119 124 125 132 135 120 113 113 104 101 89 84 80 70 64 55 54 52 40
216 225 233 235 234 187 208 192 192 197 220 180 202 162 165 176 180 183 183 181 176 178 175 164 160 154 145 138 136 136 135 136 138 141 130 132 130 122 113 105 101 89 84 82 70 64 60 54 41
219 228 216 234 227 221 139 209 211 211 213 198 117 156 173 182 189 191 184 177 174 179 178 173 164 158 149 141 144 143 145 152 139 139 140 139 135 130 120 115 104 99 98 87 85 75 64 53 35
187 225 226 193 218 216 205 250 152 226 196 163 158 180 184 182 189 179 182 184 182 183 182 172 171 162 153 154 152 149 150 149 143 147 150 142 138 134 125 122 113 103 101 97 88 78 67 52 17
180 199 240 238 218 216 174 250 225 227 206 192 194 190 192 196 181 192 186 185 184 187 175 174 171 161 161 158 154 155 156 146 151 152 154 140 146 140 130 125 119 114 114 110 97 83 72 42 12
194 178 228 214 172 217 169 253 228 226 210 219 206 200 200 197 195 196 192 187 184 178 179 172 171 166 163 162 159 156 154 151 156 157 155 145 151 144 134 129 123 125 120 113 89 67 64 21 5
199 217 224 243 190 166 203 246 239 193 205 229 214 206 207 210 205 200 196 187 182 180 174 175 173 172 166 160 156 159 156 154 160 160 155 150 156 148 137 130 127 131 120 99 90 74 50 20 352
197 217 203 219 188 202 204 238 210 169 193 220 217 211 211 209 205 200 192 184 178 180 181 174 174 171 163 155 151 151 156 160 164 167 159 157 159 149 140 131 130 135 126 107 92 86 66 35 341
207 207 221 205 206 184 215 226 223 207 213 221 223 212 218 218 213 196 185 180 174 176 178 180 173 173 162 165 165 165 173 168 170 173 160 162 159 156 144 134 138 146 130 113 102 90 53 43 358
222 226 220 215 178 205 163 237 243 194 228 212 209 220 217 219 200 184 183 180 182 181 180 179 182 174 175 173 176 175 166 178 171 165 164 164 164 161 149 145 150 148 131 120 103 97 105 59 13
218 223 144 184 118 88 116 262 244 237 242 223 225 224 216 209 204 192 187 189 184 185 184 185 182 178 176 176 164 133 126 131 160 175 169 170 169 164 150 152 154 148 136 133 129 114 108 89 49
215 197 183 124 123 206 169 261 234 222 232 221 229 221 224 207 202 196 190 191 190 193 187 183 183 179 181 175 172 172 176 172 187 175 165 167 169 162 155 157 157 150 139 138 138 134 113 140 157
207 187 192 130 191 27 225 246 259 188 227 224 224 228 225 216 203 195 194 192 194 187 185 187 184 180 182 181 181 176 177 182 157 156 159 165 168 166 160 162 158 151 142 141 144 139 155 182 187
142 100 68 95 133 249 234 225 247 226 227 225 220 223 223 215 208 200 197 191 190 188 182 182 183 183 182 182 184 184 179 165 155 161 165 166 166 163 166 163 162 152 144 151 154 153 169 181 185
172 150 134 135 172 235 193 219 237 248 239 232 214 221 227 223 208 196 187 184 184 187 185 182 182 184 183 183 184 185 180 171 167 165 168 163 167 172 173 167 164 155 150 155 153 160 176 188 204
183 177 162 161 196 234 123 225 241 232 245 251 238 241 237 227 194 189 193 189 188 186 184 183 185 183 182 182 184 183 176 173 170 170 166 170 172 169 163 164 159 151 154 158 156 166 184 196 210
184 193 169 119 7 89 205 287 288 247 261 251 242 235 241 227 197 199 188 188 186 186 186 187 185 183 183 183 178 180 171 170 169 166 162 163 158 156 159 159 157 156 157 160 162 176 190 200 210
168 196 175 191 193 210 219 231 228 241 227 230 245 253 271 244 224 211 191 187 186 184 182 184 183 182 179 179 177 178 173 166 158 153 160 161 153 150 154 155 157 158 160 160 170 178 187 205 219
156 184 194 212 166 215 234 232 206 241 324 268 344 260 251 242 229 225 203 193 180 171 172 176 176 175 175 176 172 170 169 161 154 155 154 155 145 150 156 157 158 160 163 170 176 183 192 216 237
224 173 186 195 215 231 133 270 235 112 77 46 27 325 297 309 358 188 160 148 161 165 166 169 169 170 172 170 165 163 154 151 149 149 149 147 146 149 152 154 155 158 165 172 178 189 195 216 239